[[{"header":{"parameterUnit":"m.s-1","parameterCategory":1,"la1":30.2991,"la2":30.254,"lo1":-89.0895,"lo2":-89.0444,"dy":0.0017,"dx":0.0017,"nx":28,"ny":28,"refTime":"2025-01-16T03:00:00:Z","depth":0,"parameterNumber":2,"parameterNumberName":"U-component_of_WINDS"},"data":[0,0,0,0,0,0,0,0,0,0,0,0,0,0,0,0,0,0,0,0,0,0,0,0,0,0,0,0,0,0,0,0,0,0,0,0,0,0,0,0,0,0,0,0,0,0,0,0,0,0,0,0,0,0,0,0,0,0,-1.9837,-1.9837,0,-1.9897,-1.9897,-1.9898,-1.9833,-1.9831,-1.9828,-1.9826,-1.9886,-1.9889,-1.9893,0,0,0,0,0,0,0,0,0,0,0,0,0,-1.9665,-1.9668,-1.9837,-1.9837,-1.9838,-1.9897,-1.9897,-1.9898,-1.9833,-1.983,-1.9827,-1.9825,-1.9884,-1.9889,-1.9894,0,0,0,0,0,0,0,0,0,0,0,0,0,-1.9733,-1.9669,-1.9837,-1.9813,-1.9811,-1.9896,-1.9897,-1.9898,-1.9834,-1.983,-1.9827,-1.9823,-1.9883,-1.9888,-1.9894,-2.0005,0,0,-1.9912,-1.9915,0,0,0,0,0,0,0,0,-1.973,-1.974,-1.9816,-1.9815,-1.9813,-1.9854,-1.9859,-1.9934,-1.9835,-1.9825,-1.9826,-1.9821,-1.9878,-1.9884,-1.9903,-2.0008,-2.001,-1.9913,-1.9916,-1.9919,-1.992,0,0,0,0,0,0,0,-1.9725,-1.9737,-1.986,-1.9817,-1.9815,-1.9799,-1.9805,-1.9873,-1.9872,-1.9826,-1.9821,-1.983,-1.9876,-1.9898,-1.9904,-2.0011,-1.9912,-1.9918,-1.9921,-1.9924,-2.0211,-2.0215,0,0,0,0,0,0,-1.9723,-1.9733,-1.9858,-1.9862,-1.9761,-1.9805,-1.9811,-1.9844,-1.9871,-1.9871,-1.9833,-1.9826,-1.989,-1.9897,-1.9906,-2.0039,-1.9919,-1.9924,-1.9928,-2.0207,-2.0212,-2.0217,0,0,0,0,0,0,-1.972,-1.9735,-1.9856,-1.9797,-1.9811,-1.9812,-1.985,-1.9848,-1.9869,-1.9876,-1.9875,-1.9855,-1.9887,-1.9898,-1.9981,-2.0041,-1.9927,-1.9932,-2.0202,-2.0209,-2.0214,-2.0306,0,0,0,0,0,0,-1.9715,-1.9734,-1.9776,-1.9798,-1.9814,-1.9931,-1.9853,-1.9851,-1.9879,-1.9872,-1.9897,-1.9897,-1.9885,-1.9973,-1.9987,-2.0047,-1.9937,-2.0197,-2.0205,-2.0212,-2.0298,-2.0315,-2.0329,0,0,0,0,0,-1.9709,-1.9799,-1.9779,-1.9794,-1.9867,-1.9935,-1.9944,-1.9929,-1.9884,-1.9927,-1.9932,-1.9896,-2.0031,-1.9982,-1.9998,-2.006,-2.0193,-2.0203,-2.0212,-2.0291,-2.0311,-2.0329,0,0,0,0,0,0,-1.9783,-1.9801,-1.9779,-1.9879,-1.9906,-1.9924,-1.9977,-1.995,-1.999,-1.9981,-1.9959,-1.9966,-2.0055,-2.0065,-2.001,-2.0169,-2.0105,-2.0118,-2.016,-2.0179,-2.0195,-2.0191,-1.9942,0,0,0,0,0,-1.9812,-1.9865,-1.9878,-1.9964,-1.9979,-1.9976,-2.0005,-1.9991,-2.0017,-2.0028,-2.0039,-2.0066,-2.0114,-2.0147,-2.0191,-2.0298,-2.0303,-2.0348,-2.0364,-2.0376,-2.0389,-2.0448,-2.0468,-2.0247,-2.0247,-2.0247,0,0,-1.987,-1.9886,-1.9922,-1.998,-1.9999,-2.0055,-1.9986,-2.0048,-2.009,-2.0037,-2.0118,-2.0127,-2.0155,-2.0251,-2.0294,-2.0262,-2.0451,-2.0388,-2.0398,-2.0404,-2.0459,-2.048,-2.0499,-2.0253,-2.0252,-2.0251,0,0,-2.0006,-2.0023,-2.0099,-2.012,-2.015,-2.0147,-2.0165,-2.0187,-2.0192,-2.0272,-2.0235,-2.0283,-2.0366,-2.0389,-2.0412,-2.0557,-2.0527,-2.0572,-2.0654,-2.0712,-2.073,-2.0745,-2.0799,-2.0819,-2.0583,-2.0583,-2.0584,0,-2.0075,-2.0159,-2.014,-2.0206,-2.0234,-2.0189,-2.0266,-2.0286,-2.033,-2.0349,-2.0313,-2.0418,-2.0434,-2.0536,-2.0572,-2.059,-2.0611,-2.057,-2.0728,-2.0744,-2.0758,-2.0809,-2.083,-2.0589,-2.0588,-2.0588,-2.0587,0,-2.0244,-2.0302,-2.0359,-2.0404,-2.0437,-2.0508,-2.05,-2.0535,-2.0518,-2.0519,-2.0603,-2.062,-2.0669,-2.0691,-2.0674,-2.0791,-2.0771,-2.0732,-2.0668,-2.0785,-2.0833,-2.0852,-2.0597,-2.0595,-2.0593,-2.0592,0,0,-2.043,-2.0464,-2.0485,-2.0506,-2.0536,-2.0581,-2.0649,-2.0697,-2.073,-2.076,-2.0818,-2.089,-2.0855,-2.088,-2.0865,-2.0916,-2.1033,-2.0871,-2.0871,-2.0902,-2.1165,-2.1196,-2.122,-2.1011,-2.1015,-2.1018,-2.1164,0,-2.0569,-2.0689,-2.0675,-2.079,-2.0845,-2.0803,-2.0863,-2.0888,-2.0891,-2.0937,-2.0939,-2.0992,-2.094,-2.0956,-2.1003,-2.1008,-2.1086,-2.0997,-2.1066,-2.1069,-2.1064,-2.1244,-2.1277,-2.1414,-2.1182,-2.1185,-2.1187,0,-2.0748,-2.0787,-2.0908,-2.0931,-2.0954,-2.1008,-2.1052,-2.1096,-2.1124,-2.1122,-2.1152,-2.1128,-2.1197,-2.1129,-2.1225,-2.1165,-2.1192,-2.1199,-2.1204,-2.1212,-2.1138,-2.126,-2.1457,-2.1479,-2.1216,-2.1214,-2.1212,0,-2.0875,-2.0957,-2.1041,-2.1059,-2.1088,-2.1127,-2.1141,-2.1165,-2.1195,-2.1233,-2.1253,-2.1297,-2.1323,-2.1358,-2.1347,-2.1299,-2.1446,-2.1377,-2.1447,-2.1448,-2.1483,-2.1481,-2.169,-2.1495,-2.1495,-2.1495,-2.1494,0,-2.1033,-2.111,-2.1099,-2.1151,-2.1235,-2.1217,-2.1301,-2.1309,-2.1331,-2.1384,-2.1349,-2.1399,-2.138,-2.1429,-2.1421,-2.1503,-2.1513,-2.1515,-2.1512,-2.152,-2.152,-2.1539,-2.1531,-2.15,-2.1499,-2.1498,-2.1497,0,-2.1191,-2.1187,-2.1276,-2.1296,-2.1302,-2.1364,-2.1381,-2.143,-2.1429,-2.1497,-2.1511,-2.1511,-2.1567,-2.1559,-2.1621,-2.1615,-2.1718,-2.1702,-2.1709,-2.1707,-2.1779,-2.1773,-2.2009,-2.204,-2.1823,-2.1825,-2.1827,0,-2.1294,-2.1352,-2.1379,-2.1412,-2.1429,-2.1483,-2.1514,-2.1498,-2.1532,-2.1568,-2.1613,-2.1666,-2.1708,-2.1799,-2.1804,-2.1851,-2.1838,-2.1918,-2.1845,-2.1852,-2.1843,-2.1841,-2.1848,-2.1933,-2.1936,-2.1938,-2.1939,0,-2.1478,-2.1473,-2.152,-2.1567,-2.1606,-2.1642,-2.1674,-2.1703,-2.169,-2.1729,-2.1787,-2.182,-2.1883,-2.1937,-2.1982,-2.1995,-2.1966,-2.1961,-2.1981,-2.1991,-2.1994,-2.1996,-2.1751,-2.1957,-2.1955,-2.1954,-2.1953,-2.1952,-2.1614,-2.1664,-2.1692,-2.1745,-2.1768,-2.1799,-2.1847,-2.1853,-2.1901,-2.1952,-2.1939,-2.2005,-2.2031,-2.2088,-2.2106,-2.2157,-2.2128,-2.2155,-2.2163,-2.2171,-2.2181,-2.1983,-2.2165,-2.2164,-2.2164,-2.2163,-2.2163,0,-2.1798,-2.1814,-2.1864,-2.1911,-2.1953,-2.1922,-2.1956,-2.1994,-2.2052,-2.2079,-2.2122,-2.2188,-2.224,-2.2249,-2.2299,-2.2338,-2.2326,-2.2352,-2.235,-2.2354,-2.2202,-2.2182,-2.2361,-2.2361,-2.2361,-2.2361,-2.2361,-2.2361,-2.19,-2.1985,-2.1983,-2.2079,-2.2093,-2.2158,-2.2181,-2.221,-2.2232,-2.2308,-2.2352,-2.2357,-2.2378,-2.2428,-2.2475,-2.2476,-2.2497,-2.2529,-2.2525,-2.2384,-2.2365,-2.2346,-2.2327,-2.2533,-2.2533,-2.2673,-2.2675,-2.2676]},{"header":{"parameterUnit":"m.s-1","parameterCategory":1,"la1":30.2991,"la2":30.254,"lo1":-89.0895,"lo2":-89.0444,"dy":0.0017,"dx":0.0017,"nx":28,"ny":28,"refTime":"2025-01-16T03:00:00:Z","depth":0,"parameterNumber":3,"parameterNumberName":"V-component_of_WINDS"},"data":[0,0,0,0,0,0,0,0,0,0,0,0,0,0,0,0,0,0,0,0,0,0,0,0,0,0,0,0,0,0,0,0,0,0,0,0,0,0,0,0,0,0,0,0,0,0,0,0,0,0,0,0,0,0,0,0,0,0,-1.38,-1.3801,0,-1.3858,-1.3859,-1.386,-1.386,-1.3859,-1.3859,-1.3858,-1.3915,-1.3918,-1.392,0,0,0,0,0,0,0,0,0,0,0,0,0,-1.3689,-1.3691,-1.38,-1.3801,-1.3802,-1.3858,-1.3859,-1.386,-1.386,-1.3859,-1.3858,-1.3858,-1.3915,-1.3917,-1.392,0,0,0,0,0,0,0,0,0,0,0,0,0,-1.3741,-1.3691,-1.38,-1.3809,-1.381,-1.3858,-1.3859,-1.386,-1.386,-1.3859,-1.3858,-1.3857,-1.3914,-1.3917,-1.392,-1.3963,0,0,-1.3931,-1.3932,0,0,0,0,0,0,0,0,-1.3738,-1.3745,-1.3807,-1.3808,-1.381,-1.3851,-1.3841,-1.3894,-1.3861,-1.3841,-1.3858,-1.3857,-1.3895,-1.39,-1.3913,-1.3966,-1.3968,-1.3931,-1.3933,-1.3934,-1.3935,0,0,0,0,0,0,0,-1.3734,-1.3742,-1.3823,-1.3808,-1.381,-1.3809,-1.3816,-1.3851,-1.3873,-1.3843,-1.3843,-1.385,-1.3895,-1.391,-1.3914,-1.3969,-1.3931,-1.3934,-1.3936,-1.3937,-1.406,-1.4062,0,0,0,0,0,0,-1.3729,-1.3739,-1.3821,-1.3825,-1.3771,-1.3812,-1.3819,-1.3839,-1.3873,-1.3877,-1.3851,-1.385,-1.3904,-1.391,-1.3916,-1.3969,-1.3934,-1.3937,-1.3939,-1.4059,-1.4061,-1.4062,0,0,0,0,0,0,-1.3727,-1.3736,-1.3819,-1.3782,-1.3793,-1.3815,-1.3837,-1.384,-1.3855,-1.3879,-1.3883,-1.3861,-1.3904,-1.3911,-1.3952,-1.3971,-1.3939,-1.3942,-1.4058,-1.406,-1.4061,-1.4074,0,0,0,0,0,0,-1.3724,-1.3736,-1.3752,-1.3783,-1.3795,-1.3854,-1.3839,-1.3842,-1.3861,-1.386,-1.389,-1.3894,-1.3904,-1.3947,-1.3955,-1.3975,-1.3944,-1.4056,-1.4059,-1.4061,-1.4072,-1.4076,-1.408,0,0,0,0,0,-1.372,-1.3753,-1.3753,-1.3763,-1.3816,-1.3855,-1.3862,-1.3873,-1.3862,-1.3879,-1.3895,-1.3893,-1.3967,-1.3951,-1.396,-1.3981,-1.4055,-1.4058,-1.4061,-1.4071,-1.4076,-1.408,0,0,0,0,0,0,-1.3723,-1.3757,-1.3758,-1.3802,-1.3826,-1.3855,-1.3876,-1.3878,-1.3904,-1.3902,-1.3914,-1.3921,-1.3961,-1.3975,-1.3956,-1.4025,-1.401,-1.4015,-1.4014,-1.4019,-1.4023,-1.4019,-1.3947,0,0,0,0,0,-1.3729,-1.3759,-1.3786,-1.3823,-1.3835,-1.3854,-1.3871,-1.3877,-1.3902,-1.3912,-1.3931,-1.3954,-1.3983,-1.4002,-1.403,-1.4074,-1.4081,-1.4094,-1.4097,-1.41,-1.4105,-1.413,-1.4136,-1.4072,-1.4072,-1.4072,0,0,-1.3742,-1.3764,-1.3782,-1.3824,-1.3843,-1.3873,-1.3862,-1.3894,-1.3916,-1.3917,-1.3956,-1.3971,-1.3998,-1.4041,-1.406,-1.4054,-1.4124,-1.4104,-1.4106,-1.4109,-1.4133,-1.414,-1.4145,-1.4074,-1.4073,-1.4073,0,0,-1.378,-1.38,-1.3833,-1.3852,-1.3882,-1.3895,-1.3902,-1.3932,-1.3942,-1.3982,-1.3983,-1.401,-1.4059,-1.4079,-1.4095,-1.4142,-1.4141,-1.4151,-1.4171,-1.4195,-1.42,-1.4205,-1.4222,-1.4228,-1.4155,-1.4155,-1.4155,0,-1.3792,-1.3837,-1.3849,-1.3882,-1.39,-1.3903,-1.3937,-1.3955,-1.3992,-1.4005,-1.3997,-1.4059,-1.4078,-1.4126,-1.4137,-1.415,-1.416,-1.4147,-1.4199,-1.4204,-1.4208,-1.4224,-1.4231,-1.4156,-1.4155,-1.4155,-1.4155,0,-1.3851,-1.3882,-1.3905,-1.3942,-1.3963,-1.3996,-1.4012,-1.4032,-1.4037,-1.405,-1.4091,-1.4114,-1.4147,-1.4158,-1.4163,-1.4207,-1.4202,-1.4196,-1.4182,-1.4215,-1.4231,-1.4237,-1.4157,-1.4157,-1.4156,-1.4156,0,0,-1.3892,-1.3936,-1.3944,-1.3961,-1.3995,-1.4019,-1.4052,-1.4085,-1.4102,-1.4127,-1.4155,-1.4198,-1.4193,-1.4211,-1.4218,-1.424,-1.4276,-1.4232,-1.4232,-1.4239,-1.4327,-1.4331,-1.4339,-1.4276,-1.4277,-1.4278,-1.4325,0,-1.3935,-1.3994,-1.4006,-1.4057,-1.4087,-1.409,-1.4119,-1.4142,-1.4156,-1.4183,-1.4197,-1.4227,-1.4218,-1.423,-1.4251,-1.4267,-1.4294,-1.4264,-1.4302,-1.4303,-1.4296,-1.4347,-1.4351,-1.4394,-1.4331,-1.4332,-1.4333,0,-1.3992,-1.402,-1.4074,-1.4105,-1.4117,-1.4143,-1.4175,-1.42,-1.4227,-1.4235,-1.4257,-1.4261,-1.4296,-1.4279,-1.4327,-1.4306,-1.4322,-1.4333,-1.4335,-1.4339,-1.432,-1.4352,-1.4408,-1.4414,-1.4343,-1.4342,-1.4341,0,-1.4017,-1.4069,-1.4108,-1.4122,-1.4159,-1.4177,-1.4192,-1.4218,-1.4237,-1.4265,-1.4278,-1.4308,-1.4325,-1.4349,-1.4362,-1.4349,-1.4408,-1.4393,-1.4416,-1.4416,-1.4429,-1.4428,-1.4488,-1.4439,-1.4439,-1.4439,-1.4438,0,-1.4063,-1.4097,-1.412,-1.4144,-1.4182,-1.4195,-1.4232,-1.4247,-1.4271,-1.4298,-1.4302,-1.4328,-1.4343,-1.4371,-1.4381,-1.4419,-1.4426,-1.4434,-1.4437,-1.4434,-1.4433,-1.4445,-1.4442,-1.444,-1.444,-1.444,-1.4439,0,-1.4098,-1.4115,-1.4159,-1.419,-1.4199,-1.4225,-1.4251,-1.4275,-1.4289,-1.4323,-1.4332,-1.4354,-1.4386,-1.4402,-1.4442,-1.4449,-1.4492,-1.4492,-1.4483,-1.4484,-1.4507,-1.4505,-1.4577,-1.4587,-1.4531,-1.4532,-1.4532,0,-1.4127,-1.4153,-1.4187,-1.4206,-1.4223,-1.4253,-1.4273,-1.4287,-1.4308,-1.4341,-1.4361,-1.4394,-1.4421,-1.4473,-1.4492,-1.4523,-1.4524,-1.4548,-1.4529,-1.4526,-1.4525,-1.4524,-1.4527,-1.4551,-1.4551,-1.4552,-1.4552,0,-1.4176,-1.4183,-1.4212,-1.4245,-1.4269,-1.4295,-1.432,-1.4335,-1.4354,-1.4377,-1.4411,-1.4432,-1.4474,-1.4507,-1.4539,-1.4555,-1.4557,-1.4558,-1.4565,-1.4563,-1.4557,-1.4561,-1.4493,-1.4556,-1.4556,-1.4556,-1.4555,-1.4555,-1.4208,-1.4232,-1.426,-1.4293,-1.4314,-1.4338,-1.4362,-1.4379,-1.4408,-1.4444,-1.445,-1.4487,-1.4513,-1.4557,-1.4574,-1.4603,-1.4597,-1.4607,-1.461,-1.4612,-1.4614,-1.4552,-1.4609,-1.4608,-1.4608,-1.4608,-1.4608,0,-1.4258,-1.4277,-1.4306,-1.4343,-1.4368,-1.4369,-1.4397,-1.4418,-1.4451,-1.4476,-1.4503,-1.4542,-1.4574,-1.4596,-1.4629,-1.4648,-1.4649,-1.4656,-1.4655,-1.4658,-1.4617,-1.4608,-1.4654,-1.4654,-1.4654,-1.4654,-1.4654,-1.4654,-1.4287,-1.4327,-1.4338,-1.4388,-1.4407,-1.4443,-1.4459,-1.4482,-1.4502,-1.4546,-1.4573,-1.4587,-1.4611,-1.4646,-1.4675,-1.4681,-1.4693,-1.47,-1.4705,-1.4666,-1.4661,-1.4657,-1.4648,-1.4702,-1.4702,-1.4744,-1.4745,-1.4745]}]]